Wind_Speed
9 9 9 8 8 8 9 9 10 10 11 11 11 11 11 12 13 14 15 15 15 16 16 16 16 17 17 18 18 18 18 19 18 18 19 20 21 22 22 22 23 23 23
11 11 11 11 10 10 11 11 12 12 12 12 12 12 13 14 15 15 16 16 17 17 17 17 18 18 19 19 20 20 20 20 21 21 21 22 22 23 24 24 25 25 25
12 12 13 13 12 12 13 13 13 14 14 14 14 15 15 15 16 16 17 17 17 18 19 19 19 19 20 21 22 22 22 22 22 23 23 24 24 24 25 25 26 27 27
14 15 15 15 15 14 14 15 15 16 16 16 16 17 17 17 18 18 18 18 19 20 20 20 20 21 21 22 23 23 23 24 24 25 25 25 25 26 26 26 26 26 26
17 17 17 17 18 18 18 18 17 17 18 18 18 18 19 19 20 20 20 20 21 21 21 22 22 23 24 24 25 25 25 26 27 27 28 28 27 27 27 26 27 27 27
19 18 18 19 19 20 21 21 19 19 20 20 20 21 20 21 21 21 22 22 23 23 24 24 24 25 25 26 27 27 27 28 28 29 29 29 27 27 26 27 28 28 27
22 21 21 21 21 22 22 22 21 21 22 22 22 22 22 22 23 24 24 25 24 25 25 26 26 26 26 27 28 28 28 29 30 29 29 28 28 28 28 28 29 29 29
24 23 22 22 23 23 23 23 23 23 24 24 24 24 24 25 25 26 26 26 26 26 27 28 28 28 28 28 28 29 29 30 31 30 29 28 28 28 28 28 28 28 28
24 25 25 25 25 25 25 25 24 25 25 26 26 27 27 27 27 28 28 28 28 28 28 29 29 29 29 29 29 30 30 29 29 29 29 29 29 29 29 29 28 28 28
26 27 27 27 27 26 26 27 28 28 28 28 28 29 29 29 28 28 29 30 30 29 29 29 29 29 30 29 30 30 30 29 29 29 30 30 30 31 31 30 29 29 28
29 28 28 28 28 28 28 29 29 30 30 30 30 30 30 30 30 30 31 31 31 30 30 30 30 29 30 30 30 30 30 30 30 30 31 31 30 31 31 31 30 30 29
30 30 30 30 30 30 31 31 31 31 32 32 31 31 31 31 31 31 31 32 32 31 31 31 31 30 31 31 31 31 31 31 31 32 32 32 31 31 32 32 32 31 31
32 32 32 32 32 32 33 33 33 33 32 32 32 32 32 32 32 32 32 32 33 33 33 32 32 32 32 32 32 33 32 31 32 33 33 33 33 33 32 32 32 33 33
34 34 34 34 34 34 34 34 34 33 33 33 33 33 33 32 31 32 33 33 34 34 34 33 33 33 33 33 33 33 33 33 33 33 33 33 33 33 33 33 33 33 34
34 35 36 36 36 35 35 35 34 34 34 33 33 33 33 33 32 33 34 34 35 35 35 35 34 34 34 35 34 34 33 33 34 34 33 33 33 34 33 32 33 33 33
34 35 35 34 34 34 34 34 35 34 34 33 33 33 33 32 33 33 33 34 35 35 35 35 35 34 35 34 34 33 33 33 33 33 32 32 32 32 33 33 34 33 33
34 34 34 34 33 34 34 33 34 33 33 33 32 32 32 33 32 31 32 34 34 34 33 33 32 32 33 33 33 33 32 33 33 33 33 33 32 32 33 33 33 33 33
33 33 33 33 33 33 33 33 32 32 31 31 31 31 32 32 31 31 32 33 33 33 33 33 32 32 32 32 32 32 32 33 33 33 33 32 32 33 33 32 32 32 32
33 32 32 32 32 32 31 31 31 30 31 31 30 31 31 32 32 31 32 33 33 33 33 32 31 31 31 31 31 31 32 33 33 33 32 32 32 32 32 32 32 31 31
33 33 32 32 31 31 30 30 30 30 31 31 31 31 31 31 30 30 30 30 30 31 32 31 30 30 29 30 30 30 31 31 31 31 32 32 31 31 31 32 32 31 30
31 31 31 31 31 31 31 31 30 29 30 30 31 31 30 29 28 29 29 29 29 29 29 29 28 28 28 29 29 29 29 29 30 31 31 32 32 32 32 32 32 31 31
30 30 30 31 30 30 30 30 29 29 29 29 29 30 30 29 29 29 29 29 29 29 29 29 28 28 28 28 29 29 30 30 31 31 31 32 33 33 32 32 32 31 30
27 28 28 29 29 29 29 29 28 28 28 28 29 29 30 30 30 29 28 28 29 28 28 28 28 28 28 29 30 30 31 31 31 31 31 31 31 32 32 32 31 30 29
27 27 27 28 28 27 26 26 27 27 27 28 28 28 28 28 29 28 28 28 28 28 28 28 28 29 29 29 30 30 31 32 32 31 31 31 31 31 31 31 31 30 30
25 26 27 27 26 26 26 26 26 26 26 27 27 28 27 27 27 27 27 28 28 28 28 28 28 29 30 30 30 31 32 31 31 31 31 30 31 31 31 31 31 31 30
25 25 26 26 25 25 25 25 24 24 25 26 26 26 26 26 26 26 26 26 27 28 28 29 29 30 31 31 32 31 30 30 30 30 30 30 30 31 30 31 32 32 32
Wind_Direction
291 297 295 288 288 291 294 296 297 298 300 302 304 301 300 300 302 303 303 303 302 301 301 301 300 300 301 300 300 302 301 300 301 301 299 299 297 297 296 296 296 295 295
287 291 290 285 287 289 291 293 294 294 295 296 297 300 301 299 298 298 298 299 300 300 299 298 297 297 297 297 296 299 300 300 300 301 299 298 297 297 295 295 295 294 292
286 290 293 289 287 289 290 291 291 291 291 292 291 292 296 298 297 297 299 300 301 302 300 299 299 299 299 298 297 296 298 298 298 299 298 298 297 296 295 294 295 295 294
283 286 291 291 290 288 288 290 289 289 290 290 289 290 292 295 296 295 295 298 299 302 303 300 299 298 297 297 298 296 295 295 295 297 298 298 297 295 294 293 294 296 296
285 286 287 287 288 288 289 291 291 290 289 289 289 290 290 292 292 293 293 294 297 298 300 300 298 297 296 296 296 297 295 295 294 294 295 295 294 293 293 293 293 293 294
283 283 283 285 286 287 288 289 288 290 291 290 292 291 289 289 290 290 294 293 292 294 298 300 299 298 298 298 296 297 296 295 294 295 294 292 291 291 291 292 291 291 292
279 281 282 283 283 285 287 287 288 289 289 290 291 290 290 288 286 287 290 290 290 292 295 296 298 299 298 299 299 298 297 297 295 294 293 292 292 293 292 293 291 289 288
278 280 280 281 281 282 284 285 285 287 288 288 288 288 288 287 286 285 287 289 289 289 290 292 294 297 299 298 297 297 297 297 295 294 293 293 295 297 296 295 293 291 290
278 280 281 282 283 282 282 283 284 285 286 286 287 287 286 286 285 285 286 287 289 289 290 291 292 295 296 298 297 296 297 299 297 296 295 294 294 295 295 294 294 292 290
277 279 279 281 281 280 281 282 282 282 283 284 285 286 285 284 285 286 287 286 287 288 289 291 292 293 294 295 296 296 296 296 296 296 296 295 294 294 295 294 294 292 290
275 276 277 278 278 279 280 282 283 282 282 283 284 284 284 283 284 285 286 287 287 288 289 291 291 292 294 295 296 297 297 296 296 296 296 296 295 294 294 294 294 293 291
275 275 275 277 277 278 279 280 281 282 283 282 282 282 282 283 283 284 285 286 285 286 287 290 289 291 293 294 295 296 296 295 295 296 296 295 295 294 293 293 293 291 290
274 275 275 276 276 276 277 279 280 281 281 282 281 281 282 282 283 283 284 284 283 283 284 286 288 288 290 291 292 294 295 295 295 296 295 294 293 293 294 293 291 290 290
273 273 274 274 274 274 276 277 278 279 280 281 281 280 280 281 282 282 283 283 283 282 282 283 285 287 288 290 291 293 293 294 295 295 295 293 292 292 294 294 291 289 289
273 274 275 275 274 274 275 276 277 278 279 279 279 279 278 279 281 282 283 284 284 283 283 283 285 286 287 288 289 290 292 294 295 295 294 293 293 293 294 294 292 289 289
273 275 275 275 275 275 275 275 276 276 277 277 276 276 279 281 281 282 283 286 287 285 285 285 286 286 287 288 288 289 291 292 293 294 295 295 294 293 294 294 293 291 289
272 273 274 275 275 274 274 275 275 275 275 274 275 276 279 281 280 281 283 286 287 288 287 287 287 287 287 288 287 288 289 291 292 294 296 296 295 294 295 294 293 292 290
271 272 273 274 274 274 274 275 274 274 274 275 276 278 279 280 281 283 284 285 286 289 291 290 289 288 287 287 287 288 289 291 292 294 295 295 295 295 296 295 295 294 292
270 270 271 272 273 273 274 275 275 275 276 276 276 279 279 280 282 282 284 286 287 289 290 290 289 288 287 287 288 289 291 292 293 293 294 295 295 296 296 295 294 293 291
270 270 269 269 271 272 272 273 275 275 276 276 278 280 281 281 280 282 285 287 289 290 292 293 291 290 289 290 291 292 293 293 294 293 293 293 295 296 295 295 294 293 291
271 270 270 271 270 270 271 272 273 274 275 276 277 279 279 280 283 284 286 288 290 292 293 295 294 292 291 292 292 293 294 295 295 295 293 293 293 294 295 295 295 294 292
270 270 271 272 269 270 270 269 271 273 275 277 279 280 280 281 285 287 288 290 290 291 292 293 294 294 293 295 294 294 294 295 296 296 295 294 293 294 295 295 295 294 292
270 270 271 270 270 270 271 272 273 275 277 278 279 281 281 281 283 285 286 288 290 291 292 294 295 296 295 294 294 295 294 294 296 296 295 295 295 295 295 295 295 296 294
272 272 271 270 272 272 273 273 274 276 277 278 278 279 280 282 283 284 285 286 289 291 292 294 296 295 293 293 295 297 297 296 295 295 295 295 296 295 295 294 294 294 294
273 274 274 273 272 273 275 276 277 278 277 277 278 279 282 284 286 288 290 290 291 292 292 294 296 296 296 296 296 298 298 296 295 294 294 296 297 296 295 294 294 293 292
273 276 276 277 274 273 275 278 279 279 278 278 279 282 285 286 287 289 292 294 293 293 294 295 295 296 296 296 297 298 300 298 297 295 295 296 297 297 295 294 293 292 291
Height
5897 5896 5895 5894 5893 5893 5892 5891 5890 5889 5887 5886 5885 5884 5883 5881 5880 5879 5877 5875 5874 5872 5870 5868 5867 5865 5863 5861 5859 5857 5855 5853 5851 5849 5847 5844 5842 5840 5838 5835 5833 5830 5828
5894 5892 5891 5890 5890 5889 5888 5887 5886 5885 5884 5883 5881 5880 5879 5877 5876 5875 5873 5871 5870 5868 5866 5864 5862 5860 5858 5856 5854 5852 5850 5848 5846 5844 5841 5839 5836 5834 5831 5829 5826 5824 5821
5890 5888 5887 5886 5886 5885 5884 5883 5882 5881 5880 5878 5877 5876 5874 5873 5872 5870 5868 5867 5865 5863 5861 5859 5857 5855 5852 5850 5848 5846 5844 5842 5840 5837 5835 5832 5830 5827 5824 5822 5819 5817 5814
5886 5884 5883 5882 5882 5881 5880 5879 5878 5877 5875 5874 5872 5871 5870 5868 5867 5865 5864 5862 5860 5858 5855 5853 5851 5849 5847 5844 5842 5840 5837 5835 5833 5830 5828 5825 5823 5820 5817 5814 5812 5809 5807
5880 5880 5879 5878 5877 5876 5875 5874 5873 5871 5870 5869 5867 5866 5864 5863 5861 5860 5858 5856 5854 5852 5850 5847 5845 5843 5840 5838 5836 5833 5830 5828 5825 5823 5820 5818 5815 5812 5810 5807 5804 5802 5800
5875 5874 5873 5872 5871 5870 5869 5868 5867 5866 5864 5863 5862 5860 5858 5857 5855 5854 5852 5850 5848 5846 5844 5841 5839 5836 5833 5830 5828 5825 5822 5820 5817 5815 5812 5809 5807 5804 5801 5799 5796 5794 5792
5868 5867 5866 5866 5865 5864 5863 5861 5860 5859 5858 5857 5855 5853 5852 5850 5849 5847 5845 5843 5841 5839 5837 5834 5832 5829 5826 5822 5820 5817 5815 5812 5809 5807 5804 5801 5799 5796 5793 5791 5788 5786 5784
5861 5860 5859 5859 5858 5857 5856 5855 5854 5852 5851 5850 5848 5846 5845 5843 5841 5840 5838 5835 5834 5832 5829 5827 5824 5822 5818 5815 5812 5809 5806 5804 5801 5799 5796 5793 5791 5788 5785 5782 5780 5777 5775
5853 5853 5852 5851 5850 5850 5849 5848 5846 5845 5844 5842 5840 5839 5837 5835 5833 5831 5830 5827 5825 5823 5821 5819 5816 5814 5810 5807 5804 5802 5799 5796 5793 5790 5788 5785 5782 5779 5777 5774 5771 5769 5767
5845 5845 5844 5843 5842 5842 5841 5840 5838 5837 5836 5834 5832 5830 5829 5827 5825 5823 5821 5819 5817 5815 5813 5810 5808 5805 5802 5799 5797 5794 5791 5788 5785 5782 5780 5777 5774 5771 5768 5765 5763 5760 5758
5837 5836 5835 5835 5833 5833 5832 5831 5829 5828 5827 5825 5824 5822 5820 5818 5816 5814 5812 5810 5808 5806 5804 5801 5799 5797 5794 5791 5788 5786 5783 5779 5776 5774 5771 5768 5765 5762 5759 5756 5754 5751 5749
5827 5827 5826 5825 5824 5823 5822 5821 5820 5819 5817 5815 5814 5812 5810 5809 5807 5805 5803 5801 5799 5797 5795 5792 5790 5787 5785 5783 5780 5777 5774 5770 5768 5765 5762 5759 5756 5753 5750 5747 5744 5742 5740
5818 5817 5816 5816 5815 5813 5812 5811 5810 5808 5807 5805 5804 5803 5801 5799 5797 5795 5793 5791 5789 5787 5785 5783 5781 5779 5776 5773 5771 5768 5765 5762 5759 5756 5753 5750 5747 5744 5741 5738 5735 5732 5730
5807 5807 5806 5805 5804 5803 5802 5800 5799 5798 5797 5796 5794 5793 5791 5789 5787 5785 5783 5781 5779 5777 5775 5773 5771 5768 5766 5763 5761 5758 5755 5753 5749 5746 5743 5740 5737 5734 5731 5728 5725 5722 5720
5796 5796 5795 5794 5793 5792 5791 5790 5789 5788 5787 5786 5784 5782 5781 5779 5777 5775 5773 5771 5768 5766 5763 5762 5760 5758 5756 5753 5750 5748 5745 5742 5739 5736 5733 5730 5727 5724 5721 5718 5715 5712 5710
5785 5784 5783 5783 5782 5781 5780 5779 5777 5777 5776 5775 5773 5772 5770 5768 5766 5764 5762 5760 5758 5755 5753 5751 5749 5747 5745 5743 5740 5737 5735 5732 5729 5726 5723 5720 5717 5714 5711 5708 5705 5702 5699
5773 5773 5772 5772 5771 5770 5769 5768 5767 5766 5765 5764 5763 5761 5759 5757 5755 5754 5752 5750 5748 5746 5743 5741 5739 5737 5735 5733 5730 5727 5725 5722 5719 5716 5713 5710 5707 5704 5701 5698 5695 5692 5689
5762 5761 5761 5761 5760 5759 5758 5757 5756 5755 5754 5753 5753 5751 5749 5748 5746 5744 5743 5741 5738 5736 5734 5731 5729 5727 5725 5722 5720 5718 5715 5712 5709 5706 5703 5701 5698 5695 5691 5688 5685 5682 5680
5752 5751 5751 5750 5749 5749 5748 5747 5746 5745 5745 5744 5743 5741 5740 5738 5737 5735 5733 5731 5729 5727 5724 5721 5719 5717 5715 5712 5710 5708 5705 5702 5699 5696 5694 5691 5688 5685 5681 5678 5676 5673 5670
5741 5741 5740 5740 5739 5739 5738 5737 5736 5736 5735 5734 5733 5732 5731 5729 5727 5726 5724 5721 5719 5717 5715 5712 5710 5707 5705 5703 5700 5698 5695 5692 5689 5687 5684 5681 5678 5675 5672 5669 5666 5663 5661
5732 5731 5730 5729 5729 5729 5728 5727 5727 5726 5726 5725 5724 5723 5721 5720 5718 5717 5715 5713 5711 5709 5706 5704 5701 5699 5696 5694 5691 5688 5686 5683 5680 5677 5674 5671 5669 5666 5663 5659 5657 5654 5651
5722 5721 5720 5720 5719 5718 5718 5718 5717 5717 5717 5716 5715 5714 5712 5711 5709 5707 5706 5704 5702 5700 5698 5695 5692 5690 5687 5685 5682 5679 5677 5674 5671 5668 5665 5662 5659 5656 5653 5650 5647 5644 5642
5713 5713 5711 5710 5710 5709 5709 5709 5708 5708 5708 5707 5706 5705 5704 5702 5701 5699 5697 5696 5694 5691 5689 5687 5684 5681 5678 5676 5673 5670 5667 5665 5662 5659 5656 5652 5649 5646 5643 5641 5638 5635 5633
5704 5703 5703 5702 5702 5702 5701 5700 5700 5700 5699 5698 5697 5696 5695 5694 5692 5691 5689 5687 5685 5682 5680 5678 5675 5673 5670 5667 5664 5661 5658 5655 5652 5649 5646 5643 5640 5637 5634 5631 5628 5626 5623
5696 5696 5696 5695 5694 5694 5693 5692 5691 5691 5690 5689 5688 5687 5686 5684 5683 5682 5680 5678 5676 5674 5672 5669 5666 5664 5661 5658 5655 5652 5649 5645 5642 5639 5637 5634 5631 5628 5625 5622 5619 5616 5614
5690 5689 5688 5687 5686 5686 5685 5684 5683 5682 5681 5680 5679 5678 5677 5676 5675 5673 5672 5670 5668 5665 5663 5661 5658 5655 5652 5649 5646 5642 5639 5636 5633 5630 5627 5625 5622 5619 5615 5612 5609 5606 5604